Regional Weather Roundup
Issued by NWS Charleston, SC

Current Version | Previous Version | Graphics & Text | Print | Product List | Glossary On
Versions: 1 2 3 4 5 6 7 8 9 10 11 12 13 14 15 16 17 18 19 20 21 22 23 24 25 26 27 28 29 30 31 32 33 34 35 36 37 38 39 40 41 42 43 44 45 46 47 48 49 50
000 ASUS42 KCHS 222210 RWRCHS REGIONAL WEATHER ROUNDUP NATIONAL WEATHER SERVICE CHARLESTON SC 600 PM EDT MON SEP 22 2014 NOTE: "FAIR" INDICATES FEW OR NO CLOUDS BELOW 12,000 FEET WITH NO SIGNIFICANT WEATHER AND/OR OBSTRUCTIONS TO VISIBILITY. NOT ALL STATIONS ARE QUALITY CONTROLLED BY THE NATIONAL WEATHER SERVICE. USE DATA WITH CAUTION...ESPECIALLY DEWPOINT OBSERVATIONS. SCZ027-030-031-034>040-042>050-222300- ...SOUTH CAROLINA... CITY SKY/WX TMP DP RH WIND PRES REMARKS N CHARLESTON RAIN 69 66 90 N17G25 30.02R FOG WATERFRONT PRK NOT AVBL FORT JOHNSON NOT AVBL MOUNT PLEASANT CLOUDY 72 70 94 N14G24 30.03R JOHNS ISLAND MOCLDY 73 70 88 N14G22 30.02R PINOPOLIS N/A 68 64 88 NE12 29.96R MONCKS CORNER RAIN 68 68 100 NE5 30.04F SUMMERVILLE CLOUDY 68 68 100 N7 30.04R BEAUFORT MCAS RAIN 70 67 90 E8 30.02F FOG BEAUFORT ARPT CLOUDY 68 68 100 N16G26 30.02R HILTON HEAD IS PTSUNNY 72 66 83 N14G35 30.03R GEORGETOWN NOT AVBL WALTERBORO CLOUDY 68 N/A N/A NE7 30.03F ORANGEBURG LGT RAIN 65 61 87 N6 30.04S BARNWELL DRIZZLE 64 64 100 NE3 30.04F AIKEN FAIR 68 64 88 CALM 30.08S MANNING CLOUDY 70 N/A N/A CALM 30.05R KINGSTREE NOT AVBL COLUMBIA LGT RAIN 71 61 70 VRB5 30.04R SUMTER LGT RAIN 68 63 83 NW2 30.05R FLORENCE LGT RAIN 73 64 73 S3 30.04R MYRTLE BEACH LGT RAIN 72 63 73 N9 30.04R N MYRTLE BEACH LGT RAIN 70 65 84 CALM 30.03R $$ GAZ063-065-086>088-099>101-113>116-118-119-134-136>141-150-222300- ...GEORGIA... CITY SKY/WX TMP DP RH WIND PRES REMARKS SAVANNAH ARPT PTSUNNY 73 65 75 NE8 30.01R HUNTER AAF PTSUNNY 75 66 73 NE9 29.99R FORT STEWART MOSUNNY 76 65 69 N10 29.99R STATESBORO NOT AVBL SYLVANIA CLOUDY 74 73 94 NE7 30.01F CLAXTON CLOUDY 77 68 73 NE8 30.02R THOMSON CLOUDY 69 69 99 NE3 30.08S AUGUSTA-BUSH LGT RAIN 69 64 84 N7 30.03F AUGUSTA-DANIEL CLOUDY 68 63 84 N6 30.05F SWAINSBORO MOCLDY 72 72 100 NE7 30.02S VIDALIA LGT RAIN 73 66 78 W5 30.03R ALMA MOSUNNY 80 64 58 N12G18 29.98R WAYCROSS SUNNY 89 69 50 CALM 29.95R HX 93 JESUP MOCLDY 82 68 61 N15G21 29.98R BRUNSWICK MOSUNNY 84 61 45 SE6 29.97S SAINT SIMONS PTSUNNY 82 66 58 SE12 29.96F $$ SCZ027-028-034-036>038-045-046-048>050-GAZ119-141-222300- ...LAKE AND SUPPLEMENTAL COASTAL OBSERVATIONS... STATION/POSITION TIME TEMP WIND PRES WAVE SWELL AIR SEA DIR/SP/G HT/PER HT/PER/DIR (UTC) (F) (DEG/KT/KT) (MB) (FT/S) (FT/S/D) UPR LAKE MARION NOT AVBL WINYAH BAY 2100 76 40/ 7 1015.0S LAKE MURRAY 2100 69 20/ 2/ 6 1016.6R ACE BASIN NERRS 2100 83 170/ 2 1015.0S FORT PULASKI 2200 76 350/ 13/ 18 1016.3R SAPELO ISLAND 2100 88 150/ 8 1016.0S $$ ANZ835-935-AMZ111-154-330-350-352-354-374-450-454-472-222300- ...C-MAN AND BUOY OBSERVATIONS... STATION/POSITION TIME TEMP WIND PRES WAVE SWELL AIR SEA DIR/SP/G HT/PER HT/PER/DIR (UTC) (F) (DEG/KT/KT) (MB) (FT/S) (FT/S/D) FOLLY BEACH CMAN 2100 81 210/ 12/ 14 1015.4R BUOY 41004 2200 81 82 230/ 10/ 10 1015.4R 3/ 8 3/ 8 BUOY 41008 2100 82 83 180/ 8/ 10 1015.2S 2/ 8 2/ 80/ 8 5E ST. MARYS GA 2200 84 N/A 2/ 9 FRYING PAN BUOY NOT AVBL BUOY 41025 2200 74 360/ 14/ 17 1016.2R 4/ 8 3/150/ 8 CAPE LOOKOUT NC 2100 77 10/ 8/ 10 1016.0R BUOY 41002 NOT AVBL BUOY 41010 2200 80 84 90/ 6/ 8 1016.1S 3/ 8 3/ 50/ 8 BUOY 41012 NOT AVBL ST AUGUSTINE FL 2200 82 150/ 13/ 14 1015.4F CAPERS NEARSHORE 2100 81 190/ 8/ 10 N/A FRIPP NEARSHORE NOT AVBL $$

USA.gov is the U.S. government's official web portal to all federal, state and local government web resources and services.